TimeCDT,TemperatureF,Dew PointF,Humidity,Sea Level PressureIn,VisibilityMPH,Wind Direction,Wind SpeedMPH,Gust SpeedMPH,PrecipitationIn,Events,Conditions,WindDirDegrees,DateUTC
12:53 AM,54.0,35.1,49,29.81,10.0,Calm,Calm,-,N/A,,Overcast,0,2013-03-22 05:53:00
1:53 AM,54.0,36.0,51,29.80,10.0,East,5.8,-,N/A,,Overcast,80,2013-03-22 06:53:00
2:53 AM,54.0,37.9,55,29.80,10.0,East,4.6,-,N/A,,Overcast,90,2013-03-22 07:53:00
3:28 AM,51.8,42.8,71,29.80,9.0,NE,4.6,-,0.00,Rain,Light Rain,50,2013-03-22 08:28:00
3:53 AM,51.1,43.0,74,29.79,6.0,East,3.5,-,0.00,Rain,Light Rain,90,2013-03-22 08:53:00
4:53 AM,48.9,45.0,86,29.78,6.0,East,5.8,-,0.01,Rain,Light Rain,90,2013-03-22 09:53:00
5:53 AM,48.0,46.0,93,29.80,4.0,ENE,11.5,-,0.01,Rain,Light Rain,70,2013-03-22 10:53:00
6:45 AM,48.2,46.4,93,29.83,4.0,ENE,6.9,-,0.04,Rain,Light Rain,70,2013-03-22 11:45:00
6:53 AM,48.0,46.0,93,29.83,4.0,ENE,10.4,-,0.04,Rain,Light Rain,70,2013-03-22 11:53:00
7:09 AM,48.2,46.4,93,29.83,5.0,ENE,5.8,-,0.01,Rain,Light Rain,60,2013-03-22 12:09:00
7:53 AM,46.9,46.0,97,29.86,4.0,ENE,15.0,20.7,0.02,,Overcast,60,2013-03-22 12:53:00
8:48 AM,46.4,44.6,93,29.87,9.0,East,12.7,18.4,0.00,,Overcast,80,2013-03-22 13:48:00
8:53 AM,46.9,45.0,93,29.87,8.0,ENE,11.5,-,0.01,Rain,Light Rain,60,2013-03-22 13:53:00
9:53 AM,46.0,44.1,93,29.88,8.0,East,8.1,-,0.01,,Overcast,90,2013-03-22 14:53:00
10:53 AM,46.9,44.1,90,29.88,4.0,East,10.4,17.3,0.01,,Overcast,100,2013-03-22 15:53:00
11:53 AM,48.0,46.0,93,29.87,4.0,ESE,6.9,-,N/A,,Overcast,120,2013-03-22 16:53:00
12:00 PM,48.2,44.6,87,29.87,8.0,East,8.1,-,N/A,,Overcast,100,2013-03-22 17:00:00
12:16 PM,48.2,46.4,93,29.86,4.0,East,6.9,-,N/A,,Overcast,100,2013-03-22 17:16:00
12:53 PM,50.0,46.9,89,29.85,4.0,East,6.9,-,N/A,,Overcast,100,2013-03-22 17:53:00
1:53 PM,51.1,48.0,89,29.83,7.0,ENE,4.6,-,N/A,,Overcast,60,2013-03-22 18:53:00
2:53 PM,52.0,48.9,89,29.81,4.0,ENE,6.9,-,N/A,,Overcast,70,2013-03-22 19:53:00
3:53 PM,53.1,50.0,89,29.79,6.0,ENE,9.2,-,N/A,,Overcast,70,2013-03-22 20:53:00
4:53 PM,54.0,50.0,86,29.78,6.0,ENE,6.9,-,N/A,,Overcast,60,2013-03-22 21:53:00
5:53 PM,54.0,51.1,90,29.79,5.0,NE,5.8,-,N/A,,Overcast,40,2013-03-22 22:53:00
6:53 PM,53.1,50.0,89,29.80,5.0,NE,9.2,-,N/A,,Overcast,40,2013-03-22 23:53:00
7:50 PM,51.8,48.2,88,29.82,7.0,NE,9.2,-,N/A,,Overcast,40,2013-03-23 00:50:00
7:53 PM,52.0,48.9,89,29.82,7.0,NE,9.2,-,N/A,,Overcast,40,2013-03-23 00:53:00
8:36 PM,51.8,48.2,88,29.82,7.0,ENE,10.4,-,N/A,,Overcast,60,2013-03-23 01:36:00
8:53 PM,52.0,48.9,89,29.83,7.0,NE,10.4,-,N/A,,Overcast,50,2013-03-23 01:53:00
9:22 PM,51.8,48.2,88,29.84,7.0,NE,10.4,-,0.00,Rain,Light Rain,40,2013-03-23 02:22:00
9:53 PM,51.1,48.0,89,29.83,7.0,ENE,10.4,-,0.00,,Overcast,60,2013-03-23 02:53:00
10:53 PM,50.0,48.0,93,29.84,7.0,NNE,9.2,-,N/A,,Overcast,30,2013-03-23 03:53:00
11:53 PM,50.0,46.9,89,29.84,7.0,NE,8.1,-,N/A,,Overcast,40,2013-03-23 04:53:00